Weather History for KFOZ - March, 2014

Change the Weather History Date:

Monday, March 10, 2014

  Actual Average (KGPZ) Record (KGPZ)
Temperature  
Mean Temperature 38 °F -  
Max Temperature 51 °F 34 °F 60 °F (2012)
Min Temperature 26 °F 11 °F -31 °F (1948)
Degree Days  
Heating Degree Days 26    
Moisture  
Dew Point 28 °F    
Average Humidity 68    
Maximum Humidity 93    
Minimum Humidity 38    
Precipitation  
Precipitation 0.00 in - - ()
Sea Level Pressure  
Sea Level Pressure 29.55 in    
Wind  
Wind Speed 5 mph (West)    
Max Wind Speed 13 mph    
Max Gust Speed 24 mph    
Visibility 10 miles    
Events      
Averages and records for this station are not official NWS values.
T = Trace of Precipitation, MM = Missing Value Source: NWS Daily Summary

Daily Weather History Graph

Daily Weather History Graph

Search for Another Location

Airport or City:

Trip Planner

Search our weather history database for the weather conditions in past years. The results will help you decide how hot, cold, wet, or windy it might be!

Date:

Astronomy

Mar. 10, 2014 Rise Set
Actual Time 7:37 AM CDT 7:12 PM CDT
Civil Twilight 7:06 AM CDT 7:43 PM CDT
Nautical Twilight 6:31 AM CDT 8:19 PM CDT
Astronomical Twilight 5:54 AM CDT 8:55 PM CDT
Moon 1:39 PM CDT (3/10) 4:07 AM CDT (3/10)
Length of Visible Light 12h 36m
Length of Day
11h 35m
Waxing Gibbous, 70% of the Moon is Illuminated
Mar 10
Waxing Gibbous
Mar 16
Full
Mar 23
Last Quarter
Mar 30
New
Apr 7
First Quarter

Hourly Weather History & Observations

Time (CDT) Temp. Windchill Dew Point Humidity Pressure Visibility Wind Dir Wind Speed Gust Speed Precip Events Conditions
12:13 AM 28.4 °F 23.3 °F 26.6 °F 93% 29.55 in 10.0 mi SSW 4.6 mph - N/A   Scattered Clouds
12:33 AM 28.4 °F 23.3 °F 26.6 °F 93% 29.53 in 10.0 mi South 4.6 mph - N/A   Mostly Cloudy
12:53 AM 28.4 °F 24.6 °F 26.6 °F 93% 29.53 in 10.0 mi SSW 3.5 mph - N/A   Scattered Clouds
1:13 AM 28.4 °F - 26.6 °F 93% 29.52 in 10.0 mi Calm Calm - N/A   Scattered Clouds
1:33 AM 28.4 °F - 26.6 °F 93% 29.51 in 10.0 mi Calm Calm - N/A   Clear
1:53 AM 28.4 °F - 26.6 °F 93% 29.51 in 10.0 mi Calm Calm - N/A   Clear
2:13 AM 28.4 °F - 26.6 °F 93% 29.51 in 10.0 mi Calm Calm - N/A   Clear
2:33 AM 28.4 °F - 26.6 °F 93% 29.51 in 10.0 mi Calm Calm - N/A   Clear
2:53 AM 26.6 °F - 24.8 °F 93% 29.49 in 10.0 mi Calm Calm - N/A   Clear
3:13 AM 26.6 °F - 24.8 °F 93% 29.49 in 10.0 mi Calm Calm - N/A   Clear
3:33 AM 28.4 °F - 26.6 °F 93% 29.49 in 10.0 mi Calm Calm - N/A   Clear
3:53 AM 26.6 °F - 24.8 °F 93% 29.49 in 7.0 mi Calm Calm - N/A   Clear
4:13 AM 26.6 °F 22.6 °F 24.8 °F 93% 29.46 in 7.0 mi South 3.5 mph - N/A   Clear
4:33 AM 26.6 °F 22.6 °F 24.8 °F 93% 29.46 in 10.0 mi SSW 3.5 mph - N/A   Clear
4:53 AM 26.6 °F 22.6 °F 24.8 °F 93% 29.45 in 10.0 mi SSW 3.5 mph - N/A   Clear
5:13 AM 26.6 °F 21.2 °F 24.8 °F 93% 29.45 in 10.0 mi SSW 4.6 mph - N/A   Clear
5:33 AM 26.6 °F 21.2 °F 24.8 °F 93% 29.46 in 10.0 mi SSW 4.6 mph - N/A   Clear
5:53 AM 26.6 °F 21.2 °F 24.8 °F 93% 29.46 in 10.0 mi SW 4.6 mph - N/A   Clear
6:14 AM 33.8 °F 28.6 °F 30.2 °F 87% 29.46 in 10.0 mi WSW 5.8 mph - N/A   Clear
6:33 AM 33.8 °F 29.6 °F 30.2 °F 87% 29.46 in 10.0 mi West 4.6 mph - N/A   Clear
6:53 AM 33.8 °F 28.6 °F 30.2 °F 87% 29.47 in 10.0 mi WSW 5.8 mph - N/A   Clear
7:13 AM 33.8 °F 28.6 °F 30.2 °F 87% 29.48 in 10.0 mi WSW 5.8 mph - N/A   Clear
7:33 AM 33.8 °F 30.8 °F 30.2 °F 87% 29.49 in 10.0 mi West 3.5 mph - N/A   Clear
7:53 AM 33.8 °F 29.6 °F 30.2 °F 87% 29.49 in 10.0 mi West 4.6 mph - N/A   Clear
8:13 AM 35.6 °F 29.9 °F 30.2 °F 81% 29.50 in 10.0 mi West 6.9 mph - N/A   Clear
8:33 AM 37.4 °F 33.8 °F 32.0 °F 81% 29.50 in 10.0 mi West 4.6 mph - N/A   Clear
8:53 AM 37.4 °F 32.1 °F 32.0 °F 81% 29.51 in 10.0 mi West 6.9 mph - N/A   Clear
9:13 AM 39.2 °F 33.0 °F 32.0 °F 75% 29.51 in 10.0 mi West 9.2 mph - N/A   Clear
9:33 AM 39.2 °F 33.6 °F 30.2 °F 70% 29.52 in 10.0 mi WNW 8.1 mph - N/A   Clear
9:53 AM 39.2 °F 35.0 °F 30.2 °F 70% 29.53 in 10.0 mi WNW 5.8 mph 17.3 mph N/A   Clear
10:13 AM 42.8 °F 38.6 °F 30.2 °F 61% 29.53 in 10.0 mi West 6.9 mph 17.3 mph N/A   Clear
10:33 AM 42.8 °F 37.5 °F 30.2 °F 61% 29.53 in 10.0 mi West 9.2 mph 17.3 mph N/A   Clear
10:53 AM 44.6 °F 41.4 °F 30.2 °F 57% 29.54 in 10.0 mi West 5.8 mph - N/A   Clear
11:13 AM 44.6 °F 39.7 °F 30.2 °F 57% 29.54 in 10.0 mi West 9.2 mph 16.1 mph N/A   Clear
11:33 AM 46.4 °F 42.4 °F 30.2 °F 53% 29.55 in 10.0 mi West 8.1 mph - N/A   Clear
11:53 AM 46.4 °F 41.9 °F 30.2 °F 53% 29.54 in 10.0 mi WNW 9.2 mph 16.1 mph N/A   Clear
12:13 PM 46.4 °F 42.4 °F 30.2 °F 53% 29.55 in 10.0 mi West 8.1 mph 16.1 mph N/A   Clear
12:33 PM 48.2 °F - 30.2 °F 50% 29.56 in 10.0 mi West 11.5 mph 17.3 mph N/A   Clear
12:53 PM 48.2 °F - 30.2 °F 50% 29.55 in 10.0 mi West 8.1 mph - N/A   Clear
1:13 PM 48.2 °F - 28.4 °F 46% 29.55 in 10.0 mi West 8.1 mph - N/A   Clear
1:33 PM 50.0 °F - 28.4 °F 43% 29.55 in 10.0 mi West 6.9 mph 21.9 mph N/A   Clear
1:53 PM 50.0 °F - 28.4 °F 43% 29.55 in 10.0 mi West 11.5 mph 19.6 mph N/A   Clear
2:13 PM 51.8 °F - 28.4 °F 41% 29.55 in 10.0 mi West 11.5 mph 18.4 mph N/A   Clear
2:33 PM 51.8 °F - 28.4 °F 41% 29.55 in 10.0 mi West 11.5 mph 18.4 mph N/A   Clear
2:53 PM 51.8 °F - 26.6 °F 38% 29.54 in 10.0 mi West 10.4 mph 24.2 mph N/A   Clear
3:13 PM 51.8 °F - 26.6 °F 38% 29.55 in 10.0 mi West 12.7 mph 20.7 mph N/A   Clear
3:33 PM 51.8 °F - 26.6 °F 38% 29.55 in 10.0 mi West 8.1 mph 20.7 mph N/A   Clear
3:53 PM 51.8 °F - 26.6 °F 38% 29.55 in 10.0 mi West 10.4 mph 18.4 mph N/A   Clear
4:13 PM 51.8 °F - 26.6 °F 38% 29.55 in 10.0 mi West 9.2 mph - N/A   Clear
4:33 PM 50.0 °F - 26.6 °F 40% 29.55 in 10.0 mi West 10.4 mph - N/A   Clear
4:53 PM 50.0 °F - 26.6 °F 40% 29.55 in 10.0 mi West 9.2 mph 18.4 mph N/A   Clear
5:13 PM 48.2 °F - 26.6 °F 43% 29.56 in 10.0 mi West 10.4 mph 16.1 mph N/A   Clear
5:33 PM 48.2 °F - 26.6 °F 43% 29.56 in 10.0 mi West 11.5 mph 17.3 mph N/A   Clear
5:53 PM 46.4 °F 43.5 °F 26.6 °F 46% 29.56 in 10.0 mi West 5.8 mph - N/A   Clear
6:13 PM 46.4 °F 42.4 °F 26.6 °F 46% 29.56 in 10.0 mi West 8.1 mph - N/A   Clear
6:33 PM 44.6 °F 39.7 °F 26.6 °F 49% 29.57 in 10.0 mi West 9.2 mph - N/A   Clear
6:53 PM 44.6 °F 40.7 °F 26.6 °F 49% 29.57 in 10.0 mi West 6.9 mph 17.3 mph N/A   Clear
7:13 PM 42.8 °F 39.3 °F 28.4 °F 57% 29.59 in 10.0 mi West 5.8 mph - N/A   Clear
7:33 PM 42.8 °F 38.6 °F 28.4 °F 57% 29.60 in 10.0 mi West 6.9 mph - N/A   Clear
7:53 PM 41.0 °F 35.8 °F 28.4 °F 61% 29.61 in 10.0 mi West 8.1 mph 16.1 mph N/A   Clear
8:13 PM 39.2 °F 35.9 °F 28.4 °F 65% 29.62 in 10.0 mi West 4.6 mph - N/A   Clear
8:33 PM 39.2 °F 35.9 °F 28.4 °F 65% 29.63 in 10.0 mi West 4.6 mph - N/A   Clear
8:53 PM 39.2 °F 35.0 °F 28.4 °F 65% 29.63 in 10.0 mi West 5.8 mph - N/A   Clear
9:13 PM 37.4 °F 32.8 °F 28.4 °F 70% 29.64 in 10.0 mi West 5.8 mph - N/A   Clear
9:33 PM 37.4 °F 33.8 °F 28.4 °F 70% 29.65 in 10.0 mi West 4.6 mph - N/A   Clear
9:53 PM 37.4 °F 33.8 °F 28.4 °F 70% 29.65 in 10.0 mi West 4.6 mph - N/A   Clear
10:13 PM 37.4 °F 34.9 °F 28.4 °F 70% 29.66 in 10.0 mi West 3.5 mph - N/A   Clear
10:33 PM 37.4 °F 34.9 °F 28.4 °F 70% 29.66 in 10.0 mi WNW 3.5 mph - N/A   Clear
10:53 PM 37.4 °F 34.9 °F 28.4 °F 70% 29.67 in 10.0 mi WNW 3.5 mph - N/A   Clear
11:13 PM 35.6 °F - 28.4 °F 75% 29.67 in 10.0 mi Calm Calm - N/A   Clear
11:33 PM 35.6 °F 32.8 °F 28.4 °F 75% 29.68 in 10.0 mi WNW 3.5 mph - N/A   Clear
11:53 PM 35.6 °F 32.8 °F 28.4 °F 75% 29.68 in 10.0 mi NW 3.5 mph - N/A   Clear